This is the latest recevied weather packets stored in our database for station/object N4ZIQ. If no packets are shown the sender has not sent any weather packets the latest 10 day(s).
| Time | Temp. | Humidity | Pressure | Rain* | Wind** | Luminosity | Snow |
|---|---|---|---|---|---|---|---|
| 1777857945 | 20° C | 81% | 1017.3 hPa | 0 mm | - | 0 W/m² | - |
| 1777857645 | 20° C | 80% | 1017.2 hPa | 0 mm | - | 0 W/m² | - |
| 1777857353 | 20° C | 80% | 1017.2 hPa | 0 mm | - | 0 W/m² | - |
| 1777857045 | 20° C | 80% | 1017.2 hPa | 0 mm | - | 0 W/m² | - |
| 1777856746 | 20° C | 80% | 1017.1 hPa | 0 mm | - | 0 W/m² | - |
| 1777856454 | 20° C | 80% | 1017 hPa | 0 mm | - | 0 W/m² | - |
| 1777856145 | 20.56° C | 80% | 1017 hPa | 0 mm | - | 0 W/m² | - |
| 1777855845 | 20.56° C | 80% | 1016.9 hPa | 0 mm | - | 0 W/m² | - |
| 1777855553 | 20.56° C | 80% | 1016.8 hPa | 0 mm | - | 0 W/m² | - |
| 1777855246 | 20.56° C | 79% | 1016.8 hPa | 0 mm | - | 0 W/m² | - |
| 1777854945 | 20.56° C | 79% | 1016.7 hPa | 0 mm | - | 0 W/m² | - |
| 1777854651 | 20.56° C | 79% | 1016.8 hPa | 0 mm | - | 0 W/m² | - |
| 1777854346 | 20.56° C | 79% | 1016.7 hPa | 0 mm | - | 0 W/m² | - |
| 1777854047 | 20.56° C | 79% | 1016.7 hPa | 0 mm | - | 0 W/m² | - |
| 1777853751 | 20.56° C | 79% | 1016.7 hPa | 0 mm | - | 0 W/m² | - |
| 1777853445 | 20.56° C | 78% | 1016.5 hPa | 0 mm | - | 0 W/m² | - |
| 1777853147 | 21.11° C | 77% | 1016.6 hPa | 0 mm | - | 0 W/m² | - |
| 1777852888 | 21.11° C | 76% | 1016.5 hPa | 0 mm | - | 0 W/m² | - |
| 1777852544 | 21.11° C | 76% | 1016.4 hPa | 0 mm | - | 7 W/m² | - |
| 1777852249 | 21.11° C | 76% | 1016.4 hPa | 0 mm | - | 12 W/m² | - |
| 1777851956 | 21.67° C | 75% | 1016.3 hPa | 0 mm | - | 19 W/m² | - |
| 1777851645 | 21.67° C | 75% | 1016.3 hPa | 0 mm | - | 30 W/m² | - |
| 1777851346 | 21.67° C | 74% | 1016.4 hPa | 0 mm | - | 37 W/m² | - |
| 1777851049 | 21.67° C | 75% | 1016.3 hPa | 0 mm | - | 46 W/m² | - |
| 1777850749 | 21.67° C | 74% | 1016.3 hPa | 0 mm | - | 42 W/m² | - |
* Rain latest hour (hover to see other rain measurements)
** Current wind speed in m/s (hover to see current wind gust speed)